| time (UTC) | temp F | wind direction | speed MPH | gust MPH | rain 1hr in | rain 24hr in | rain mn in | humidity % | barometer mb |
| 20260510121549 | 52 | 53 | 0.0 | 7.0 | 0.00 | 0.00 | 0.00 | 89 | 1011.0 |
| 20260510120048 | 52 | 125 | 0.0 | 3.0 | 0.00 | 0.00 | 0.00 | 90 | 1011.0 |
| 20260510114547 | 52 | 204 | 0.0 | 0.0 | 0.00 | 0.00 | 0.00 | 89 | 1011.0 |
| 20260510113047 | 52 | 162 | 0.0 | 0.0 | 0.00 | 0.00 | 0.00 | 89 | 1010.9 |
| 20260510111545 | 52 | 207 | 0.0 | 0.0 | 0.00 | 0.00 | 0.00 | 89 | 1010.9 |
| 20260510110045 | 52 | 93 | 0.0 | 7.0 | 0.00 | 0.00 | 0.00 | 89 | 1010.6 |
| 20260510104545 | 51 | 111 | 0.0 | 0.0 | 0.00 | 0.00 | 0.00 | 91 | 1010.4 |
| 20260510103041 | 51 | 69 | 0.0 | 0.0 | 0.00 | 0.00 | 0.00 | 91 | 1010.2 |
| 20260510101541 | 50 | 60 | 0.0 | 0.0 | 0.00 | 0.00 | 0.00 | 91 | 1010.5 |
| 20260510100037 | 51 | 90 | 0.0 | 0.0 | 0.00 | 0.00 | 0.00 | 91 | 1009.6 |
| 20260510094537 | 50 | 90 | 0.0 | 0.0 | 0.00 | 0.00 | 0.00 | 91 | 1009.3 |
| 20260510093036 | 50 | 68 | 0.0 | 0.0 | 0.00 | 0.00 | 0.00 | 91 | 1009.7 |
| 20260510091537 | 50 | 134 | 0.0 | 0.0 | 0.00 | 0.00 | 0.00 | 90 | 1009.5 |
| 20260510090033 | 51 | 82 | 0.0 | 0.0 | 0.00 | 0.00 | 0.00 | 89 | 1009.3 |
| 20260510084535 | 51 | 132 | 0.0 | 0.0 | 0.00 | 0.00 | 0.00 | 88 | 1009.2 |
| 20260510083030 | 52 | 111 | 0.0 | 0.0 | 0.00 | 0.00 | 0.00 | 88 | 1009.1 |
| 20260510081534 | 52 | 94 | 0.0 | 0.0 | 0.00 | 0.00 | 0.00 | 87 | 1009.3 |
| 20260510080028 | 52 | 83 | 0.0 | 0.0 | 0.00 | 0.00 | 0.00 | 87 | 1009.6 |
| 20260510074527 | 53 | 65 | 0.0 | 0.0 | 0.00 | 0.00 | 0.00 | 86 | 1009.7 |
| 20260510073025 | 53 | 166 | 0.0 | 8.0 | 0.00 | 0.00 | 0.00 | 84 | 1009.4 |
| 20260510071524 | 53 | 105 | 0.0 | 10.0 | 0.00 | 0.00 | 0.00 | 84 | 1009.3 |
| 20260510070027 | 53 | 120 | 0.0 | 4.0 | 0.00 | 0.00 | 0.00 | 85 | 1009.0 |
| 20260510064531 | 53 | 104 | 1.0 | 12.0 | 0.00 | 0.00 | 0.00 | 83 | 1009.4 |
| 20260510063022 | 54 | 108 | 0.0 | 12.0 | 0.00 | 0.00 | 0.00 | 82 | 1009.3 |
| 20260510061622 | 54 | 82 | 0.0 | 1.0 | 0.00 | 0.00 | 0.00 | 82 | 1009.3 |
| 20260510060020 | 54 | 122 | 0.0 | 2.0 | 0.00 | 0.00 | 0.00 | 81 | 1009.2 |
| 20260510054519 | 54 | 91 | 1.0 | 11.0 | 0.00 | 0.00 | 0.00 | 81 | 1009.3 |
| 20260510053023 | 54 | 105 | 0.0 | 11.0 | 0.00 | 0.00 | 0.00 | 80 | 1009.4 |
| 20260510051518 | 54 | 143 | 2.0 | 14.0 | 0.00 | 0.00 | 0.00 | 80 | 1009.4 |
| 20260510050015 | 53 | 84 | 0.0 | 15.0 | 0.00 | 0.00 | 0.00 | 80 | 1009.2 |
| 20260510044516 | 53 | 119 | 1.0 | 16.0 | 0.00 | 0.00 | 0.00 | 81 | 1009.2 |
| 20260510043009 | 52 | 114 | 0.0 | 0.0 | 0.00 | 0.00 | 0.00 | 82 | 1009.1 |
| 20260510041513 | 51 | 127 | 0.0 | 0.0 | 0.00 | 0.00 | 0.00 | 82 | 1009.1 |
| 20260510040003 | 51 | 113 | 0.0 | 0.0 | 0.00 | 0.00 | 0.00 | 83 | 1008.6 |
| 20260510034501 | 51 | 80 | 0.0 | 0.0 | 0.00 | 0.00 | 0.00 | 83 | 1008.8 |
| 20260510033134 | 51 | 137 | 0.0 | 0.0 | 0.00 | 0.00 | 0.00 | 82 | 1009.1 |
| 20260510031559 | 52 | 105 | 0.0 | 6.0 | 0.00 | 0.00 | 0.00 | 81 | 1009.3 |
| 20260510030057 | 52 | 98 | 0.0 | 0.0 | 0.00 | 0.00 | 0.00 | 81 | 1009.3 |
| 20260510024605 | 52 | 115 | 0.0 | 0.0 | 0.00 | 0.00 | 0.00 | 80 | 1009.4 |
| 20260510023057 | 52 | 135 | 0.0 | 0.0 | 0.00 | 0.00 | 0.00 | 80 | 1009.4 |
| 20260510021556 | 52 | 88 | 0.0 | 13.0 | 0.00 | 0.00 | 0.00 | 79 | 1009.1 |
| 20260510020057 | 52 | 85 | 0.0 | 1.0 | 0.00 | 0.00 | 0.00 | 79 | 1009.3 |
| 20260510014552 | 52 | 97 | 0.0 | 0.0 | 0.00 | 0.00 | 0.00 | 79 | 1009.6 |
| 20260510013052 | 52 | 108 | 0.0 | 0.0 | 0.00 | 0.00 | 0.00 | 79 | 1009.6 |
| 20260510011550 | 52 | 120 | 0.0 | 0.0 | 0.00 | 0.00 | 0.00 | 79 | 1009.6 |
| 20260510010048 | 52 | 108 | 0.0 | 0.0 | 0.00 | 0.00 | 0.00 | 79 | 1009.8 |
| 20260510004546 | 52 | 89 | 0.0 | 0.0 | 0.00 | 0.00 | 0.00 | 79 | 1009.9 |
| 20260510003059 | 52 | 88 | 0.0 | 0.0 | 0.00 | 0.00 | 0.00 | 79 | 1010.2 |
| 20260510001545 | 52 | 83 | 0.0 | 0.0 | 0.00 | 0.00 | 0.00 | 79 | 1010.1 |
| 20260510000046 | 52 | 80 | 0.0 | 0.0 | 0.00 | 0.00 | 0.00 | 79 | 1010.1 |
| 20260509234546 | 52 | 158 | 0.0 | 0.0 | 0.00 | 0.00 | 0.00 | 79 | 1010.2 |
| 20260509233043 | 52 | 84 | 0.0 | 0.0 | 0.00 | 0.00 | 0.00 | 78 | 1010.3 |
| 20260509231543 | 52 | 97 | 0.0 | 0.0 | 0.00 | 0.00 | 0.00 | 77 | 1010.2 |
| 20260509230049 | 52 | 89 | 0.0 | 0.0 | 0.00 | 0.00 | 0.00 | 77 | 1010.1 |
| 20260509224640 | 52 | 80 | 0.0 | 11.0 | 0.00 | 0.00 | 0.00 | 76 | 1010.1 |
| 20260509223046 | 52 | 97 | 0.0 | 1.0 | 0.00 | 0.00 | 0.00 | 76 | 1010.1 |
| 20260509221538 | 52 | 101 | 0.0 | 9.0 | 0.00 | 0.00 | 0.00 | 76 | 1010.2 |
| 20260509220036 | 52 | 84 | 0.0 | 9.0 | 0.00 | 0.00 | 0.00 | 76 | 1010.3 |
| 20260509214539 | 52 | 95 | 0.0 | 9.0 | 0.00 | 0.00 | 0.00 | 76 | 1010.3 |
| 20260509213034 | 52 | 77 | 0.0 | 15.0 | 0.00 | 0.00 | 0.00 | 76 | 1010.5 |
| 20260509211532 | 52 | 97 | 0.0 | 7.0 | 0.00 | 0.00 | 0.00 | 75 | 1010.6 |
| 20260509210031 | 53 | 121 | 0.0 | 1.0 | 0.00 | 0.00 | 0.00 | 74 | 1010.7 |
| 20260509204529 | 53 | 94 | 0.0 | 12.0 | 0.00 | 0.00 | 0.00 | 72 | 1010.7 |
| 20260509203035 | 54 | 135 | 0.0 | 11.0 | 0.00 | 0.00 | 0.00 | 73 | 1010.8 |
| 20260509201528 | 54 | 124 | 1.0 | 13.0 | 0.00 | 0.00 | 0.00 | 69 | 1010.6 |
| 20260509200027 | 55 | 122 | 0.0 | 11.0 | 0.00 | 0.00 | 0.00 | 67 | 1010.6 |
| 20260509194527 | 55 | 109 | 0.0 | 12.0 | 0.00 | 0.00 | 0.00 | 66 | 1010.7 |
| 20260509193023 | 55 | 91 | 0.0 | 0.0 | 0.00 | 0.00 | 0.00 | 66 | 1010.8 |
| 20260509191522 | 55 | 70 | 0.0 | 18.0 | 0.00 | 0.00 | 0.00 | 65 | 1010.9 |
| 20260509190022 | 55 | 84 | 0.0 | 13.0 | 0.00 | 0.00 | 0.00 | 62 | 1010.9 |
| 20260509184525 | 56 | 79 | 0.0 | 4.0 | 0.00 | 0.00 | 0.00 | 62 | 1011.1 |
| 20260509183018 | 56 | 87 | 0.0 | 18.0 | 0.00 | 0.00 | 0.00 | 60 | 1011.3 |
| 20260509181516 | 56 | 98 | 0.0 | 13.0 | 0.00 | 0.00 | 0.00 | 58 | 1011.2 |
| 20260509180015 | 56 | 131 | 1.0 | 15.0 | 0.00 | 0.00 | 0.00 | 57 | 1011.3 |
| 20260509174515 | 56 | 171 | 0.0 | 9.0 | 0.00 | 0.00 | 0.00 | 54 | 1011.4 |
| 20260509173017 | 55 | 188 | 0.0 | 7.0 | 0.00 | 0.00 | 0.00 | 60 | 1011.4 |
| 20260509171513 | 56 | 175 | 0.0 | 7.0 | 0.00 | 0.00 | 0.00 | 59 | 1011.5 |
| 20260509170011 | 55 | 133 | 1.0 | 8.0 | 0.00 | 0.00 | 0.00 | 56 | 1011.6 |
| 20260509164509 | 55 | 193 | 0.0 | 4.0 | 0.00 | 0.00 | 0.00 | 55 | 1011.9 |
| 20260509163006 | 57 | 281 | 0.0 | 0.0 | 0.00 | 0.00 | 0.00 | 51 | 1012.1 |
| 20260509161506 | 58 | 165 | 0.0 | 0.0 | 0.00 | 0.00 | 0.00 | 49 | 1012.2 |
| 20260509160006 | 59 | 141 | 0.0 | 5.0 | 0.00 | 0.00 | 0.00 | 44 | 1012.3 |
| 20260509154502 | 58 | 96 | 0.0 | 7.0 | 0.00 | 0.00 | 0.00 | 43 | 1012.6 |
| 20260509153110 | 57 | 150 | 0.0 | 2.0 | 0.00 | 0.00 | 0.00 | 43 | 1012.8 |
| 20260509151607 | 58 | 243 | 0.0 | 5.0 | 0.00 | 0.00 | 0.00 | 43 | 1013.1 |
| 20260509150054 | 56 | 149 | 0.0 | 10.0 | 0.00 | 0.00 | 0.00 | 43 | 1013.1 |
| 20260509144555 | 56 | 188 | 0.0 | 1.0 | 0.00 | 0.00 | 0.00 | 45 | 1013.2 |
| 20260509143104 | 56 | 124 | 0.0 | 6.0 | 0.00 | 0.00 | 0.00 | 46 | 1013.4 |
| 20260509141548 | 55 | 163 | 0.0 | 1.0 | 0.00 | 0.00 | 0.00 | 47 | 1013.5 |
| 20260509140047 | 55 | 154 | 0.0 | 8.0 | 0.00 | 0.00 | 0.00 | 46 | 1013.4 |
| 20260509134545 | 55 | 77 | 0.0 | 13.0 | 0.00 | 0.00 | 0.00 | 48 | 1013.4 |
| 20260509133055 | 55 | 94 | 0.0 | 9.0 | 0.00 | 0.00 | 0.00 | 49 | 1013.4 |
| 20260509131535 | 53 | 114 | 0.0 | 11.0 | 0.00 | 0.00 | 0.00 | 53 | 1013.6 |
| 20260509130033 | 52 | 112 | 0.0 | 4.0 | 0.00 | 0.00 | 0.00 | 54 | 1013.9 |
| 20260509124531 | 51 | 146 | 0.0 | 0.0 | 0.00 | 0.00 | 0.00 | 55 | 1014.2 |
| 20260509123032 | 50 | 105 | 0.0 | 0.0 | 0.00 | 0.00 | 0.00 | 57 | 1014.2 |